Home > Time Zones > World Clock > Weather > U.S.A. > Bend > Past weeks

Flag for U.S.A. Weather past 2 weeks in Bend, Oregon, U.S.A.

Now
33 °F

Overcast.


Feels Like: 30 °F
Forecast: 32 / 45 °F
Wind: 3 mph from Southeast

Location: Roberts Field Airport

Current Time: Feb 27, 2015 at 8:18:56 AM

Latest Report: Feb 27, 2015 at 7:56 AM


Visibility: 10 mi

Pressure: 29.72 "Hg

Humidity: 100%

Dew point: 33 °F

Location of BendLocation

Historic Weather in Bend — Graph

°F

Bend temperature yesterday

Maximum temperature yesterday: 52 °F (at 12:56 PM)
Minimum temperature yesterday: 30 °F (at 2:56 AM)
Average temperature yesterday: 42 °F

Past Weeks' High & Low Weather Summary

 TemperatureHumidityPressure
High64 °F (Feb 12, 2:56 PM)97% (Feb 14, 1:56 AM)30.50 "Hg (Feb 14, 1:56 AM)
Low10 °F (Feb 23, 4:56 AM)10% (Feb 24, 12:56 PM)29.72 "Hg (Feb 27, 6:56 AM)
Average38 °F67%30.27 "Hg
* Reported Feb 12 6:56 AM — Feb 27 6:56 AM, Bend, Weather by CustomWeather, © 2015

Note: Actual official high and low records may vary slightly from our data, if they occured in-between our weather recording intervals... More about our weather records

Advertising

Bend weather history for previous 24 hours

 ConditionsComfort  
Time TempWeatherWind HumidityBarometerVisibility
6:56 AM
Fri, Feb 27
34 °FPartly sunny.No wind97%29.72 "Hg10 mi
5:56 AM36 °FMostly cloudy.7 mph92%29.72 "Hg10 mi
4:56 AM37 °FOvercast.5 mph93%29.73 "Hg10 mi
3:56 AM37 °FOvercast.3 mph96%29.73 "Hg10 mi
2:56 AM38 °FLight rain. Fog.7 mph97%29.76 "Hg6 mi
2:03 AM39 °FLight rain. Mostly cloudy.6 mph79%29.78 "Hg10 mi
1:56 AM39 °FMostly cloudy.6 mph79%29.78 "Hg10 mi
12:56 AM39 °FMostly cloudy.6 mph79%29.80 "Hg10 mi
11:56 PM
Thu, Feb 26
39 °FMostly cloudy.7 mph79%29.83 "Hg10 mi
10:56 PM39 °FMostly cloudy.6 mph79%29.87 "Hg10 mi
9:56 PM40 °FOvercast.No wind86%29.90 "Hg10 mi
8:56 PM40 °FMostly cloudy.3 mph86%29.93 "Hg10 mi
7:56 PM42 °FOvercast.5 mph76%29.95 "Hg10 mi
6:56 PM43 °FPartly cloudy.No wind71%29.96 "Hg10 mi
5:56 PM44 °FClear.5 mph68%29.97 "Hg10 mi
4:56 PM48 °FScattered clouds.12 mph56%29.98 "Hg10 mi
3:56 PM51 °FSunny.10 mph50%29.99 "Hg10 mi
2:56 PM50 °FSunny.14 mph50%30.02 "Hg10 mi
1:56 PM51 °FSunny.14 mph48%30.03 "Hg10 mi
12:56 PM52 °FOvercast.13 mph49%30.05 "Hg10 mi
11:56 AM49 °FPartly sunny.3 mph55%30.09 "Hg10 mi
10:56 AM49 °FSunny.No wind55%30.12 "Hg10 mi
9:56 AM47 °FSunny.No wind59%30.14 "Hg10 mi
8:56 AM42 °FSunny.6 mph68%30.16 "Hg10 mi
Weather by CustomWeather, © 2015

See weather overviewHow to use our weather pages